Regional Weather Roundup
Issued by NWS

Home | Current Version | Previous Version | Graphics & Text | Print | Product List | Glossary On
Versions: 1 2 3 4 5 6 7 8 9 10 11 12 13 14 15 16 17 18 19 20 21 22 23 24 25 26 27 28 29 30 31 32 33 34 35 36 37 38 39 40 41 42 43 44 45 46 47 48 49 50
603
ASUS44 KLIX 211101
RWRLA
LOUISIANA WEATHER ROUNDUP
NATIONAL WEATHER SERVICE NEW ORLEANS LA
600 AM CDT THU AUG 21 2014

NOTE: "FAIR" INDICATES FEW OR NO CLOUDS BELOW 12,000 FEET WITH NO
      SIGNIFICANT WEATHER AND/OR OBSTRUCTIONS TO VISIBILITY.
      SKY/WX - SKY CONDITION AND SIGNIFICANT WEATHER.
      TMP - AIR TEMPERATURE.    DP   - DEWPOINT TEMPERATURE.
      RH  - RELATIVE HUMIDITY.  PRES - PRESSURE.
      HX  - HEAT INDEX.         WCI  - WIND CHILL INDEX.

*  THESE STATIONS ARE NOT NWS OR FAA STATIONS AND ARE NOT UNDER
   NWS QUALITY CONTROL.

LAZ040-048-061>063-065-066-069-211200-
SOUTHEAST LOUISIANA

CITY           SKY/WX    TMP DP  RH WIND       PRES   REMARKS
N.O. AUDUBON     N/A     78  78 100 MISG        N/A
N.O. INTL ARPT MOCLDY    77  74  90 CALM      30.10S
N.O. LAKEFRONT PTCLDY    79  76  90 S3        30.11R
N.O. DOWNTOWN* FAIR      82  73  74 S3        30.11R
SLIDELL        PTCLDY    74  71  91 N3        30.11R
BATON ROUGE    MOCLDY    74  72  93 NE3       30.10R
BOOTHVILLE     CLEAR     83  76  79 S5        30.11R
BELLE CHASSE   PTCLDY    75  72  90 CALM      30.10R
BOGALUSA*      FAIR      74  70  89 CALM      30.13R
GALLIANO*      NOT AVBL
NEW ROADS*     FAIR      75  74  98 CALM      30.10R
GONZALES*      FAIR      73  73  99 CALM      30.10R
HAMMOND*       NOT AVBL
HOUMA*         CLEAR     73  70  91 CALM      30.10R FOG
PORT FOURCHON* SUNNY     84  77  79 S3        30.11S

$$

LAZ041-044-053-054-211200-
SOUTHWEST LOUISIANA

CITY           SKY/WX    TMP DP  RH WIND       PRES   REMARKS
LAKE CHARLES   CLOUDY    79  77  94 CALM      30.06R
LAFAYETTE      MOCLDY    76  74  93 CALM      30.08S
PATTERSON      CLEAR    N/A N/A N/A MISG        N/A
SALT POINT       N/A     86  78  77 CALM      30.08R HX  98
NEW IBERIA     PTCLDY    76  73  91 SE5       30.09R
CHENAULT AIRPK NOT AVBL

$$

LAZ027-028-211200-
CENTRAL LOUISIANA

CITY           SKY/WX    TMP DP  RH WIND       PRES   REMARKS
FORT POLK      CLOUDY    75  74  96 CALM      30.07R
ALEXANDRIA INT CLOUDY    77  74  90 E5        30.06R
ALEXANDRIA     CLOUDY    75  72  90 CALM      30.08R

$$

LAZ001-002-211200-
NORTHWEST LOUISIANA

CITY           SKY/WX    TMP DP  RH WIND       PRES   REMARKS
SHREVEPORT     MOCLDY    76  73  91 SE6       30.05R
BARKSDALE AFB  MOCLDY    74  73  97 SE6       30.06R
DTN SHREVEPORT MOCLDY    76  73  91 SE5       30.06R

$$

LAZ014-016-211200-
NORTHEAST LOUISIANA

CITY           SKY/WX    TMP DP  RH WIND       PRES   REMARKS
MONROE         PTCLDY    73  71  93 CALM      30.09R
TALLULAH       PTCLDY    71  69  93 CALM      30.10R

$$




USA.gov is the U.S. government's official web portal to all federal, state and local government web resources and services.